THURAYA-3

Last updated on Sun Nov 16 2025 00:03:40 GMT+0000 (Coordinated Universal Time)

1 32404U 08001A 25319.25761405 -.00000296 00000+0 00000+0 0 9998 2 32404 5.6294 35.3411 0002360 202.9688 7.5394 1.00272527 65346
UTC large
Height (km)
Speed (km/s)
/
Latitude / Longitude
Inclination (degrees)
Orbital Period (minutes)
Azimuth
Elevation
Range (km)
Doppler Factor

Next 0 passes for location: London (51.5072 / 0.1276)

Sorry there are no passes over London.